This is the latest recevied weather packets stored in our database for station/object KR4KUV. If no packets are shown the sender has not sent any weather packets the latest 10 day(s).
| Time | Temp. | Humidity | Pressure | Rain* | Wind** | Luminosity | Snow |
|---|---|---|---|---|---|---|---|
| 1787594333 | 30° C | 52% | 1017.4 hPa | 0 mm | - | 735 W/m² | - |
| 1787594028 | 30.56° C | 50% | 1017.3 hPa | 0 mm | - | 741 W/m² | - |
| 1787593727 | 30.56° C | 50% | 1017.4 hPa | 0 mm | - | 747 W/m² | - |
| 1787593423 | 30° C | 55% | 1017.6 hPa | 0 mm | - | 755 W/m² | - |
| 1787593118 | 30° C | 53% | 1017.6 hPa | 0 mm | - | 747 W/m² | - |
| 1787592812 | 30° C | 53% | 1017.6 hPa | 0 mm | - | 737 W/m² | - |
| 1787592507 | 30° C | 52% | 1017.6 hPa | 0 mm | - | 737 W/m² | - |
| 1787592206 | 30° C | 50% | 1017.6 hPa | 0 mm | - | 736 W/m² | - |
| 1787591903 | 29.44° C | 54% | 1017.4 hPa | 0 mm | - | 732 W/m² | - |
| 1787591598 | 30° C | 53% | 1017.7 hPa | 0 mm | - | 734 W/m² | - |
| 1787591294 | 29.44° C | 53% | 1017.6 hPa | 0 mm | - | 728 W/m² | - |
| 1787590989 | 30° C | 54% | 1017.7 hPa | 0 mm | - | 723 W/m² | - |
| 1787590685 | 30° C | 51% | 1017.7 hPa | 0 mm | - | 718 W/m² | - |
| 1787590380 | 29.44° C | 56% | 1017.7 hPa | 0 mm | - | 708 W/m² | - |
| 1787590075 | 29.44° C | 55% | 1017.9 hPa | 0 mm | - | 705 W/m² | - |
| 1787589771 | 28.89° C | 58% | 1017.9 hPa | 0 mm | - | 699 W/m² | - |
| 1787589466 | 28.89° C | 54% | 1018.2 hPa | 0 mm | - | 692 W/m² | - |
| 1787589161 | 28.89° C | 55% | 1018 hPa | 0 mm | - | 689 W/m² | - |
| 1787588856 | 28.89° C | 55% | 1018.1 hPa | 0 mm | - | 683 W/m² | - |
| 1787588553 | 28.33° C | 58% | 1018.2 hPa | 0 mm | - | 674 W/m² | - |
| 1787588247 | 28.33° C | 54% | 1018.3 hPa | 0 mm | - | 668 W/m² | - |
| 1787587943 | 28.33° C | 55% | 1018.2 hPa | 0 mm | - | 663 W/m² | - |
| 1787587638 | 28.33° C | 58% | 1018.2 hPa | 0 mm | - | 658 W/m² | - |
| 1787587327 | 28.33° C | 57% | 1018.3 hPa | 0 mm | - | 650 W/m² | - |
| 1787587027 | 28.33° C | 56% | 1018.4 hPa | 0 mm | - | 640 W/m² | - |
* Rain latest hour (hover to see other rain measurements)
** Current wind speed in m/s (hover to see current wind gust speed)